Weather History for Soldotna, AK

Change the Weather History Date:

Wednesday, January 16, 2013

  Actual Average Record
Temperature  
Mean Temperature 22 °F -  
Max Temperature 24 °F 21 °F 46 °F (2009)
Min Temperature 21 °F 8 °F -44 °F (1973)
Degree Days  
Heating Degree Days 42    
Moisture  
Dew Point 20 °F    
Average Humidity 88    
Maximum Humidity 93    
Minimum Humidity 80    
Precipitation  
Precipitation 0.05 in - - ()
Sea Level Pressure  
Sea Level Pressure 29.91 in    
Wind  
Wind Speed 2 mph (NE)    
Max Wind Speed 8 mph    
Max Gust Speed -    
Visibility 7 miles    
Events      
Averages and records for this station are not official NWS values.
T = Trace of Precipitation, MM = Missing Value Source: NWS Daily Summary

Daily Weather History Graph

Daily Weather History Graph

Search for Another Location

Airport:

Trip Planner

Search our weather history database for the weather conditions in past years. The results will help you decide how hot, cold, wet, or windy it might be!

Date:

Astronomy

Jan. 16, 2013 Rise Set
Actual Time 9:52 AM AKST 4:35 PM AKST
Civil Twilight 8:59 AM AKST 5:29 PM AKST
Nautical Twilight 8:04 AM AKST 6:24 PM AKST
Astronomical Twilight 7:14 AM AKST 7:14 PM AKST
Moon 10:48 AM AKST (1/16) No Moon Set
Length of Visible Light 8h 29m
Length of Day
6h 43m
Waxing Crescent, 29% of the Moon is Illuminated
Jan 16
Waxing Crescent
Jan 18
First Quarter
Jan 26
Full
Feb 3
Last Quarter
Feb 9
New

Hourly Weather History & Observations

Time (AKST) Temp. Windchill Dew Point Humidity Pressure Visibility Wind Dir Wind Speed Gust Speed Precip Events Conditions
12:16 AM 24.8 °F 19.1 °F 19.4 °F 80% 30.16 in 10.0 mi ENE 4.6 mph - N/A   Overcast
12:36 AM 24.8 °F 19.1 °F 19.4 °F 80% 30.15 in 10.0 mi East 4.6 mph - N/A   Overcast
12:56 AM 24.8 °F 20.5 °F 19.4 °F 80% 30.16 in 10.0 mi ENE 3.5 mph - N/A   Overcast
1:16 AM 24.8 °F - 19.4 °F 80% 30.15 in 10.0 mi Calm Calm - N/A   Overcast
1:36 AM 24.8 °F - 19.4 °F 80% 30.15 in 10.0 mi Calm Calm - N/A   Overcast
1:56 AM 24.8 °F - 21.2 °F 86% 30.14 in 10.0 mi Calm Calm - N/A   Overcast
2:16 AM 24.8 °F - 19.4 °F 80% 30.14 in 10.0 mi Calm Calm - N/A   Overcast
3:16 AM 24.8 °F - 21.2 °F 86% 30.10 in 10.0 mi Calm Calm - N/A   Overcast
3:36 AM 24.8 °F - 21.2 °F 86% 30.10 in 10.0 mi Calm Calm - N/A   Overcast
3:56 AM 24.8 °F 19.1 °F 21.2 °F 86% 30.09 in 10.0 mi NE 4.6 mph - N/A   Overcast
4:16 AM 24.8 °F - 21.2 °F 86% 30.08 in 10.0 mi Calm Calm - N/A   Overcast
4:36 AM 24.8 °F - 21.2 °F 86% 30.06 in 10.0 mi Calm Calm - N/A   Overcast
4:56 AM 24.8 °F 17.9 °F 21.2 °F 86% 30.05 in 10.0 mi NE 5.8 mph - N/A   Overcast
5:16 AM 24.8 °F 17.9 °F 19.4 °F 80% 30.04 in 10.0 mi NE 5.8 mph - N/A   Overcast
5:36 AM 24.8 °F 19.1 °F 19.4 °F 80% 30.03 in 5.0 mi NNE 4.6 mph - N/A   Overcast
5:56 AM 24.8 °F 16.1 °F 21.2 °F 86% 30.02 in 2.5 mi ENE 8.1 mph - N/A   Overcast
6:16 AM 24.8 °F 19.1 °F 21.2 °F 86% 30.01 in 1.5 mi ENE 4.6 mph - N/A   Overcast
6:36 AM 24.8 °F 19.1 °F 21.2 °F 86% 30.00 in 1.5 mi NE 4.6 mph - N/A   Overcast
6:56 AM 23.0 °F 17.0 °F 21.2 °F 93% 29.99 in 0.8 mi ENE 4.6 mph - N/A   Overcast
7:16 AM 23.0 °F 17.0 °F 19.4 °F 86% 30.00 in 1.5 mi NNW 4.6 mph - 0.01 in   Overcast
7:36 AM 23.0 °F - 21.2 °F 93% 30.00 in 1.2 mi Calm Calm - 0.01 in   Overcast
7:56 AM 23.0 °F - 19.4 °F 86% 29.99 in 0.8 mi Calm Calm - 0.01 in   Overcast
8:16 AM 23.0 °F 18.4 °F 19.4 °F 86% 29.99 in 0.5 mi North 3.5 mph - 0.02 in   Overcast
8:36 AM 21.2 °F 16.4 °F 19.4 °F 93% 29.98 in 0.8 mi ENE 3.5 mph - 0.03 in   Overcast
8:56 AM 23.0 °F 17.0 °F 19.4 °F 86% 29.98 in 2.5 mi NE 4.6 mph - 0.04 in   Overcast
9:16 AM 21.2 °F 13.6 °F 19.4 °F 93% 29.98 in 1.8 mi ENE 5.8 mph - N/A   Overcast
9:36 AM 23.0 °F 15.8 °F 19.4 °F 86% 29.97 in 2.5 mi ENE 5.8 mph - N/A   Overcast
9:56 AM 23.0 °F 14.7 °F 19.4 °F 86% 29.96 in 1.2 mi ENE 6.9 mph - N/A   Overcast
10:16 AM 23.0 °F 15.8 °F 19.4 °F 86% 29.96 in 0.8 mi NE 5.8 mph - N/A   Overcast
10:36 AM 23.0 °F 17.0 °F 19.4 °F 86% 29.95 in 2.0 mi NE 4.6 mph - N/A   Overcast
10:56 AM 23.0 °F 18.4 °F 19.4 °F 86% 29.95 in 2.5 mi ENE 3.5 mph - N/A   Mostly Cloudy
11:16 AM 23.0 °F - 19.4 °F 86% 29.94 in 1.8 mi Calm Calm - N/A   Overcast
11:36 AM 21.2 °F - 19.4 °F 93% 29.93 in 1.5 mi Calm Calm - N/A   Overcast
11:56 AM 21.2 °F 16.4 °F 19.4 °F 93% 29.92 in 2.5 mi NE 3.5 mph - N/A   Overcast
12:16 PM 21.2 °F - 19.4 °F 93% 29.92 in 4.0 mi Calm Calm - N/A   Overcast
12:36 PM 21.2 °F - 19.4 °F 93% 29.92 in 8.0 mi Calm Calm - N/A   Overcast
12:56 PM 23.0 °F - 19.4 °F 86% 29.91 in 10.0 mi Calm Calm - N/A   Overcast
1:16 PM 23.0 °F 17.0 °F 19.4 °F 86% 29.90 in 10.0 mi North 4.6 mph - N/A   Overcast
1:36 PM 23.0 °F - 19.4 °F 86% 29.89 in 10.0 mi Calm Calm - N/A   Overcast
1:56 PM 23.0 °F 18.4 °F 19.4 °F 86% 29.88 in 4.0 mi East 3.5 mph - N/A   Overcast
2:16 PM 23.0 °F 18.4 °F 19.4 °F 86% 29.87 in 10.0 mi NE 3.5 mph - N/A   Overcast
2:36 PM 23.0 °F 18.4 °F 19.4 °F 86% 29.86 in 10.0 mi NE 3.5 mph - N/A   Mostly Cloudy
2:56 PM 23.0 °F - 19.4 °F 86% 29.86 in 7.0 mi Calm Calm - N/A   Overcast
3:16 PM 23.0 °F 18.4 °F 19.4 °F 86% 29.85 in 10.0 mi NNE 3.5 mph - N/A   Overcast
3:36 PM 23.0 °F 15.8 °F 19.4 °F 86% 29.84 in 10.0 mi NE 5.8 mph - N/A   Overcast
3:56 PM 23.0 °F 18.4 °F 19.4 °F 86% 29.83 in 10.0 mi NE 3.5 mph - N/A   Overcast
4:16 PM 23.0 °F - 19.4 °F 86% 29.83 in 10.0 mi Calm Calm - N/A   Overcast
4:36 PM 23.0 °F - 19.4 °F 86% 29.82 in 10.0 mi Calm Calm - N/A   Overcast
4:56 PM 23.0 °F - 19.4 °F 86% 29.81 in 10.0 mi Calm Calm - N/A   Overcast
5:16 PM 23.0 °F - 19.4 °F 86% 29.81 in 10.0 mi Calm Calm - N/A   Overcast
5:36 PM 21.2 °F - 19.4 °F 93% 29.80 in 10.0 mi Calm Calm - N/A   Overcast
5:56 PM 21.2 °F - 19.4 °F 93% 29.79 in 10.0 mi Calm Calm - N/A   Overcast
6:16 PM 21.2 °F - 19.4 °F 93% 29.78 in 10.0 mi Calm Calm - N/A   Overcast
6:36 PM 21.2 °F 16.4 °F 19.4 °F 93% 29.77 in 10.0 mi ENE 3.5 mph - N/A   Overcast
6:56 PM 21.2 °F - 19.4 °F 93% 29.76 in 10.0 mi Calm Calm - N/A   Overcast
7:16 PM 21.2 °F - 19.4 °F 93% 29.76 in 10.0 mi Calm Calm - N/A   Overcast
7:36 PM 21.2 °F - 19.4 °F 93% 29.76 in 10.0 mi Calm Calm - N/A   Overcast
7:56 PM 21.2 °F - 19.4 °F 93% 29.75 in 6.0 mi Calm Calm - N/A   Overcast
8:16 PM 21.2 °F - 19.4 °F 93% 29.74 in 5.0 mi Calm Calm - N/A   Overcast
8:36 PM 21.2 °F - 19.4 °F 93% 29.74 in 8.0 mi Calm Calm - N/A   Overcast
8:56 PM 21.2 °F - 19.4 °F 93% 29.73 in 5.0 mi Calm Calm - N/A   Overcast
9:16 PM 21.2 °F - 19.4 °F 93% 29.73 in 5.0 mi Calm Calm - N/A   Overcast
9:36 PM 21.2 °F - 19.4 °F 93% 29.72 in 7.0 mi Calm Calm - N/A   Overcast
9:56 PM 21.2 °F - 19.4 °F 93% 29.71 in 8.0 mi Calm Calm - N/A   Overcast
10:16 PM 21.2 °F - 19.4 °F 93% 29.71 in 5.0 mi Calm Calm - N/A   Overcast
10:36 PM 21.2 °F - 19.4 °F 93% 29.71 in 9.0 mi Calm Calm - N/A   Overcast
10:56 PM 21.2 °F - 19.4 °F 93% 29.70 in 9.0 mi Calm Calm - N/A   Overcast
11:16 PM 21.2 °F - 19.4 °F 93% 29.69 in 10.0 mi Calm Calm - N/A   Overcast
11:36 PM 21.2 °F - 19.4 °F 93% 29.69 in 5.0 mi Calm Calm - N/A   Overcast
11:56 PM 21.2 °F - 19.4 °F 93% 29.68 in 2.0 mi Calm Calm - N/A   Overcast